OBJECT B, 44880

Orbit data source: Space-Track

You're viewing an Uncataloged Satellite

Recently launched and/or uncataloged satellites may have evolving metadata. Metadata may include but not limited to: Owner, Maufacturer, Bus, Motor, and Mission.

OBJECT B, 44880 is a satellite in SSO that was launched on Fri, 20 Dec 2019 UTC via a CHANG ZHENG 4B launch vehicle from the Taiyaun Space Center, China (TSC). Unknown objects in Earth's orbit typically refer to objects detected orbiting the Earth but have not yet been identified or cataloged. These objects could be anything from previously untracked satellites, spent rocket stages, debris from satellite collisions, or even natural meteoroids temporarily captured by Earth's gravity.

Loading next visibility...
Identifier
44880, 2019-093B
Orbit
SSO
Country
Flag of TBDTBD
Related business
None
Manufacturer
Unknown
Mission
Operational Civil Imaging
Bus & Motor
Unknown
Mass
Unknown
Launch date (UTC)
2019-12-20 (6 years ago)
Launch vehicle
CHANG ZHENG 4B
Launch site
Taiyaun Space Center, China (TSC)
Object type
Unknown
Shape & HBR
Box + 2 Pan, Unknown HBR
Radar Cross Section
0.195 m², Medium (>0.1 m² and < 1m²)

Expand to show TLE details & history
Last TLE update: 7 hours ago

TLE from 7 hours ago
0 OBJECT B
1 44880U 19093B   25311.29579156  .00006501  00000-0  61414-3 0  9993
2 44880  97.7991  32.1171 0012915  76.3496 283.9161 14.93993230318900
Epoch: 2025-11-07T07:05Z
TLE epoch observation values (Epoch: 2025-11-07T07:05:56.390Z)
Latitude
-0.00006°
Longitude
-121.10965°
Altitude
586.391 km
Speed
7.568 km/s
True Right ascension
02h 08m 28s
True Declination
0° 00' 00"
Sunlit
Object was in full shadow at epoch
Visualization orbit readout
Latitude
Unknown
Longitude
Unknown
Altitude
Unknown
Speed
Unknown
Apparent Right ascension
Unknown
Apparent Declination
Unknown
Sunlit
N/A
Visualization observer readout
Local Sidereal Time
10:07:59
Azimuth
Unknown
Elevation
Unknown
Doppler factor
Unknown
Orbital elements
Apogee altitude
591.507 km
Perigee altitude
573.527 km
Semi-major axis
6,960.654 km
Eccentricity
0.00129
Inclination
97.7991°
RAAN
32.1171°
Arg. of periapsis
76.3496°
True anomaly
283.77239°
Mean anomaly
283.9161°
Eccentric anomaly
283.84425°
Mean motion
3.73739 °/min
Orbital period
96.32 mins
BSTAR
0.00061414
Loading maneuver chart data...
Computing Atmospheric mass density...
Loading historical data...
Loading historical data...
Loading historical data...
Loading historical data...
Loading historical data...
Loading historical data...
Loading historical data...

Documentation

Showing up to 5 results
|